Date,TemperatureHighF,TemperatureAvgF,TemperatureLowF,DewpointHighF,DewpointAvgF,DewpointLowF,HumidityHigh,HumidityAvg,HumidityLow,PressureMaxIn,PressureMinIn,WindSpeedMaxMPH,WindSpeedAvgMPH,GustSpeedMaxMPH,PrecipitationSumIn
2013-8-1,66.2,56.4,50.8,53.0,46.8,38.0,93,72,49,29.92,29.87,22,3,29,0.03
2013-8-2,79.1,63.1,48.5,54.0,49.3,45.0,94,65,36,29.98,29.81,7,1,16,0.03
2013-8-3,80.7,65.4,52.3,52.0,47.0,44.0,75,54,30,29.91,29.77,14,2,19,0.00
2013-8-4,80.2,60.4,48.0,54.0,47.5,43.0,92,66,29,29.94,29.81,12,2,26,0.05
2013-8-5,75.2,59.0,46.9,55.0,48.4,45.0,92,71,38,29.97,29.85,10,1,19,0.05
2013-8-6,76.5,58.7,47.4,53.0,47.0,41.0,87,67,38,29.89,29.80,13,1,28,0.00
2013-8-7,70.2,57.7,49.0,48.0,44.7,42.0,80,64,40,29.90,29.81,14,2,23,0.00
2013-8-8,73.1,57.5,49.0,50.0,44.3,42.0,80,63,36,29.94,29.80,10,1,17,0.15
2013-8-9,71.3,57.5,45.1,48.0,42.6,38.0,82,60,35,30.05,29.92,9,1,15,0.15
2013-8-10,75.5,58.0,44.9,47.0,40.8,36.0,76,56,26,30.05,29.93,15,2,29,0.00
2013-8-11,78.2,60.0,43.1,46.0,40.8,37.0,84,53,27,30.08,29.91,15,2,19,0.00
2013-8-12,75.8,59.2,45.0,44.0,40.1,35.0,70,52,28,29.99,29.86,12,2,23,0.00
2013-8-13,74.8,57.2,42.6,51.0,42.2,38.0,84,61,29,30.03,29.93,10,2,21,0.03
2013-8-14,78.8,68.3,53.6,45.0,37.2,33.0,49,34,20,30.00,29.87,11,3,19,0.00
2013-8-15,83.4,62.7,45.1,42.0,35.3,32.0,64,40,18,29.99,29.85,15,2,21,0.00
2013-8-16,87.5,66.8,47.3,40.0,32.5,29.0,53,31,13,29.98,29.79,14,2,17,0.00
2013-8-17,86.6,67.6,51.3,43.0,35.7,28.0,47,33,16,29.92,29.71,16,2,20,0.00
2013-8-18,81.2,64.2,53.0,50.0,43.7,39.0,74,49,29,29.91,29.75,17,2,21,0.00
2013-8-19,88.5,66.9,47.2,50.0,43.1,33.0,82,49,15,29.98,29.74,13,2,16,0.00
2013-8-20,84.0,64.6,53.4,53.0,45.2,40.0,91,53,25,29.85,29.66,14,2,24,0.06
2013-8-21,84.1,64.7,47.4,54.0,47.4,42.0,91,59,24,29.93,29.81,9,1,17,0.07
2013-8-22,80.6,66.2,55.9,53.0,47.1,42.0,84,53,32,29.90,29.68,10,2,16,0.01
2013-8-23,79.5,61.5,50.3,55.0,49.9,46.0,89,69,31,29.84,29.66,19,3,32,0.01
2013-8-24,75.6,61.1,48.6,52.0,46.5,41.0,90,62,29,29.89,29.80,16,2,25,0.02
2013-8-25,72.0,60.2,54.0,58.0,49.9,44.0,94,70,45,29.96,29.87,9,1,24,0.08
2013-8-26,74.3,62.2,54.3,55.0,53.3,50.0,95,74,50,30.00,29.88,12,1,17,0.08
2013-8-27,82.3,64.7,50.6,55.0,50.9,47.0,88,65,31,29.96,29.74,15,2,23,0.13
2013-8-28,83.6,65.8,52.2,55.0,50.3,46.0,87,61,28,29.88,29.74,13,3,21,0.01
2013-8-29,86.8,67.3,50.3,52.0,47.9,44.0,83,54,23,29.95,29.80,15,2,19,0.01
2013-8-30,83.9,65.0,53.7,53.0,48.6,45.0,75,58,30,29.93,29.77,15,2,21,0.00
2013-8-31,81.9,64.0,52.4,53.0,49.9,47.0,84,63,31,29.89,29.73,23,3,31,0.00